| time (UTC) | temp F | wind direction | speed knots | gust knots | rain 1hr in | rain 24hr in | rain mn in | humidity % | barometer mb |
| 20260510225516 | 77 | 0 | 0.0 | 0.0 | 0.00 | 0.00 | 0.00 | 43 | 1014.1 |
| 20260510225014 | 77 | 0 | 0.0 | 1.7 | 0.00 | 0.00 | 0.00 | 42 | 1014.1 |
| 20260510224532 | 77 | 0 | 0.0 | 1.7 | 0.00 | 0.00 | 0.00 | 44 | 1014.0 |
| 20260510224015 | 77 | 227 | 0.0 | 1.7 | 0.00 | 0.00 | 0.00 | 44 | 1014.0 |
| 20260510223513 | 78 | 0 | 0.0 | 2.6 | 0.00 | 0.00 | 0.00 | 42 | 1014.2 |
| 20260510223033 | 78 | 0 | 0.0 | 2.6 | 0.00 | 0.00 | 0.00 | 41 | 1014.1 |
| 20260510222516 | 78 | 253 | 0.9 | 2.6 | 0.00 | 0.00 | 0.00 | 42 | 1014.1 |
| 20260510222015 | 78 | 0 | 0.9 | 3.5 | 0.00 | 0.00 | 0.00 | 42 | 1014.2 |
| 20260510221533 | 78 | 0 | 0.9 | 3.5 | 0.00 | 0.00 | 0.00 | 41 | 1014.0 |
| 20260510221016 | 78 | 240 | 0.0 | 3.5 | 0.00 | 0.00 | 0.00 | 40 | 1013.9 |
| 20260510220515 | 78 | 271 | 0.9 | 3.5 | 0.00 | 0.00 | 0.00 | 42 | 1014.1 |
| 20260510220033 | 79 | 0 | 0.0 | 6.1 | 0.00 | 0.00 | 0.00 | 42 | 1013.9 |
| 20260510215517 | 79 | 0 | 0.9 | 6.1 | 0.00 | 0.00 | 0.00 | 40 | 1013.8 |
| 20260510215014 | 79 | 0 | 0.9 | 3.5 | 0.00 | 0.00 | 0.00 | 40 | 1014.0 |
| 20260510214531 | 79 | 0 | 0.0 | 2.6 | 0.00 | 0.00 | 0.00 | 43 | 1013.9 |
| 20260510214016 | 78 | 0 | 0.0 | 2.6 | 0.00 | 0.00 | 0.00 | 44 | 1013.8 |
| 20260510213516 | 77 | 0 | 0.0 | 2.6 | 0.00 | 0.00 | 0.00 | 44 | 1013.9 |
| 20260510213033 | 77 | 0 | 0.0 | 0.0 | 0.00 | 0.00 | 0.00 | 48 | 1013.9 |
| 20260510212517 | 76 | 0 | 0.0 | 0.0 | 0.00 | 0.00 | 0.00 | 45 | 1013.7 |
| 20260510212020 | 76 | 0 | 0.0 | 0.0 | 0.00 | 0.00 | 0.00 | 46 | 1013.7 |
| 20260510211532 | 77 | 0 | 0.0 | 0.9 | 0.00 | 0.00 | 0.00 | 44 | 1013.7 |
| 20260510211016 | 78 | 0 | 0.0 | 0.9 | 0.00 | 0.00 | 0.00 | 42 | 1013.7 |
| 20260510210520 | 78 | 0 | 0.0 | 0.0 | 0.00 | 0.00 | 0.00 | 42 | 1013.7 |
| 20260510210035 | 79 | 0 | 0.0 | 1.7 | 0.00 | 0.00 | 0.00 | 39 | 1013.7 |
| 20260510205516 | 79 | 0 | 0.0 | 1.7 | 0.00 | 0.00 | 0.00 | 39 | 1013.6 |
| 20260510205016 | 79 | 0 | 0.0 | 1.7 | 0.00 | 0.00 | 0.00 | 38 | 1013.6 |
| 20260510204538 | 79 | 0 | 0.0 | 1.7 | 0.00 | 0.00 | 0.00 | 39 | 1013.8 |
| 20260510204019 | 79 | 0 | 0.0 | 2.6 | 0.00 | 0.00 | 0.00 | 38 | 1013.8 |
| 20260510203516 | 80 | 0 | 0.0 | 2.6 | 0.00 | 0.00 | 0.00 | 38 | 1013.8 |
| 20260510203034 | 80 | 268 | 0.0 | 3.5 | 0.00 | 0.00 | 0.00 | 38 | 1013.8 |
| 20260510202517 | 80 | 0 | 0.0 | 3.5 | 0.00 | 0.00 | 0.00 | 39 | 1013.7 |
| 20260510202019 | 80 | 246 | 0.0 | 3.5 | 0.00 | 0.00 | 0.00 | 38 | 1013.9 |
| 20260510201534 | 80 | 0 | 0.9 | 3.5 | 0.00 | 0.00 | 0.00 | 38 | 1013.9 |
| 20260510201016 | 79 | 0 | 0.0 | 2.6 | 0.00 | 0.00 | 0.00 | 38 | 1013.8 |
| 20260510200516 | 79 | 0 | 0.0 | 1.7 | 0.00 | 0.00 | 0.00 | 38 | 1013.8 |
| 20260510200031 | 80 | 0 | 0.0 | 3.5 | 0.00 | 0.00 | 0.00 | 38 | 1013.9 |
| 20260510195516 | 81 | 0 | 0.0 | 3.5 | 0.00 | 0.00 | 0.00 | 38 | 1013.9 |
| 20260510195016 | 81 | 0 | 0.0 | 3.5 | 0.00 | 0.00 | 0.00 | 36 | 1014.0 |
| 20260510194533 | 82 | 0 | 0.0 | 1.7 | 0.00 | 0.00 | 0.00 | 35 | 1014.1 |
| 20260510194018 | 82 | 0 | 0.0 | 6.1 | 0.00 | 0.00 | 0.00 | 36 | 1014.1 |
| 20260510193516 | 81 | 0 | 0.9 | 6.1 | 0.00 | 0.00 | 0.00 | 38 | 1014.3 |
| 20260510193034 | 80 | 157 | 0.9 | 7.0 | 0.00 | 0.00 | 0.00 | 37 | 1014.2 |
| 20260510192514 | 80 | 0 | 0.9 | 7.0 | 0.00 | 0.00 | 0.00 | 40 | 1014.3 |
| 20260510192014 | 80 | 0 | 0.9 | 4.3 | 0.00 | 0.00 | 0.00 | 39 | 1014.4 |
| 20260510191533 | 81 | 0 | 0.9 | 4.3 | 0.00 | 0.00 | 0.00 | 36 | 1014.3 |
| 20260510191020 | 83 | 225 | 1.7 | 6.1 | 0.00 | 0.00 | 0.00 | 36 | 1014.2 |
| 20260510190513 | 82 | 142 | 0.9 | 6.1 | 0.00 | 0.00 | 0.00 | 37 | 1014.2 |
| 20260510190036 | 82 | 0 | 0.0 | 5.2 | 0.00 | 0.00 | 0.00 | 37 | 1014.3 |
| 20260510185517 | 81 | 0 | 0.0 | 0.0 | 0.00 | 0.00 | 0.00 | 39 | 1014.2 |
| 20260510185014 | 79 | 0 | 0.0 | 0.0 | 0.00 | 0.00 | 0.00 | 42 | 1014.4 |
| 20260510184535 | 79 | 0 | 0.0 | 1.7 | 0.00 | 0.00 | 0.00 | 38 | 1014.5 |
| 20260510184016 | 79 | 0 | 0.0 | 3.5 | 0.00 | 0.00 | 0.00 | 41 | 1014.3 |
| 20260510183514 | 81 | 0 | 0.0 | 3.5 | 0.00 | 0.00 | 0.00 | 38 | 1014.3 |
| 20260510183036 | 80 | 0 | 0.0 | 5.2 | 0.00 | 0.00 | 0.00 | 40 | 1014.5 |
| 20260510182516 | 79 | 0 | 1.7 | 5.2 | 0.00 | 0.00 | 0.00 | 38 | 1014.4 |
| 20260510182014 | 80 | 0 | 0.9 | 4.3 | 0.00 | 0.00 | 0.00 | 40 | 1014.5 |
| 20260510181545 | 80 | 267 | 0.9 | 7.0 | 0.00 | 0.00 | 0.00 | 38 | 1014.5 |
| 20260510181016 | 80 | 0 | 0.9 | 7.0 | 0.00 | 0.00 | 0.00 | 38 | 1014.8 |
| 20260510180514 | 78 | 241 | 1.7 | 7.0 | 0.00 | 0.00 | 0.00 | 40 | 1014.7 |
| 20260510180044 | 78 | 0 | 0.0 | 2.6 | 0.00 | 0.00 | 0.00 | 42 | 1014.7 |
| 20260510175513 | 78 | 0 | 0.0 | 0.9 | 0.00 | 0.00 | 0.00 | 40 | 1014.8 |
| 20260510175015 | 78 | 0 | 0.0 | 1.7 | 0.00 | 0.00 | 0.00 | 41 | 1014.8 |
| 20260510174532 | 78 | 0 | 0.0 | 5.2 | 0.00 | 0.00 | 0.00 | 43 | 1015.0 |
| 20260510174019 | 78 | 0 | 0.0 | 5.2 | 0.00 | 0.00 | 0.00 | 40 | 1015.0 |
| 20260510173516 | 80 | 273 | 0.0 | 4.3 | 0.00 | 0.00 | 0.00 | 38 | 1014.9 |
| 20260510173031 | 80 | 0 | 1.7 | 5.2 | 0.00 | 0.00 | 0.00 | 37 | 1015.0 |
| 20260510172513 | 80 | 167 | 0.9 | 5.2 | 0.00 | 0.00 | 0.00 | 39 | 1015.1 |
| 20260510172015 | 81 | 276 | 0.0 | 3.5 | 0.00 | 0.00 | 0.00 | 38 | 1015.2 |
| 20260510171536 | 80 | 0 | 0.9 | 3.5 | 0.00 | 0.00 | 0.00 | 39 | 1015.3 |
| 20260510171016 | 80 | 0 | 0.0 | 4.3 | 0.00 | 0.00 | 0.00 | 39 | 1015.3 |
| 20260510170516 | 79 | 0 | 0.0 | 5.2 | 0.00 | 0.00 | 0.00 | 41 | 1015.4 |
| 20260510170032 | 79 | 0 | 0.0 | 5.2 | 0.00 | 0.00 | 0.00 | 41 | 1015.4 |
| 20260510165517 | 79 | 277 | 0.0 | 3.5 | 0.00 | 0.00 | 0.00 | 39 | 1015.3 |
| 20260510165021 | 79 | 0 | 0.0 | 6.1 | 0.00 | 0.00 | 0.00 | 41 | 1015.4 |
| 20260510164534 | 78 | 216 | 0.0 | 6.1 | 0.00 | 0.00 | 0.00 | 40 | 1015.4 |
| 20260510164013 | 80 | 0 | 0.9 | 4.3 | 0.00 | 0.00 | 0.00 | 39 | 1015.5 |
| 20260510163517 | 79 | 290 | 0.0 | 3.5 | 0.00 | 0.00 | 0.00 | 42 | 1015.4 |
| 20260510163034 | 79 | 0 | 0.9 | 5.2 | 0.00 | 0.00 | 0.00 | 39 | 1015.6 |
| 20260510162517 | 79 | 0 | 0.0 | 5.2 | 0.00 | 0.00 | 0.00 | 42 | 1015.3 |
| 20260510162018 | 78 | 0 | 1.7 | 5.2 | 0.00 | 0.00 | 0.00 | 42 | 1015.3 |
| 20260510161531 | 78 | 0 | 0.9 | 5.2 | 0.00 | 0.00 | 0.00 | 44 | 1015.3 |
| 20260510161017 | 76 | 0 | 0.0 | 5.2 | 0.00 | 0.00 | 0.00 | 44 | 1015.3 |
| 20260510160516 | 76 | 244 | 0.0 | 6.1 | 0.00 | 0.00 | 0.00 | 43 | 1015.4 |
| 20260510160037 | 77 | 163 | 1.7 | 6.1 | 0.00 | 0.00 | 0.00 | 44 | 1015.6 |
| 20260510155519 | 77 | 278 | 0.9 | 6.1 | 0.00 | 0.00 | 0.00 | 44 | 1015.5 |
| 20260510155014 | 77 | 0 | 0.0 | 4.3 | 0.00 | 0.00 | 0.00 | 44 | 1015.5 |
| 20260510154536 | 76 | 0 | 0.0 | 2.6 | 0.00 | 0.00 | 0.00 | 47 | 1015.5 |
| 20260510154018 | 75 | 232 | 0.9 | 2.6 | 0.00 | 0.00 | 0.00 | 48 | 1015.6 |
| 20260510153517 | 75 | 209 | 0.0 | 2.6 | 0.00 | 0.00 | 0.00 | 51 | 1015.5 |
| 20260510153034 | 75 | 173 | 0.9 | 2.6 | 0.00 | 0.00 | 0.00 | 52 | 1015.5 |
| 20260510152517 | 75 | 47 | 0.0 | 2.6 | 0.00 | 0.00 | 0.00 | 51 | 1015.6 |
| 20260510152016 | 74 | 0 | 0.0 | 3.5 | 0.00 | 0.00 | 0.00 | 52 | 1015.6 |
| 20260510151540 | 73 | 205 | 0.0 | 3.5 | 0.00 | 0.00 | 0.00 | 54 | 1015.7 |
| 20260510151016 | 73 | 0 | 0.0 | 3.5 | 0.00 | 0.00 | 0.00 | 54 | 1015.7 |
| 20260510150516 | 73 | 177 | 0.0 | 3.5 | 0.00 | 0.00 | 0.00 | 53 | 1015.6 |
| 20260510150046 | 73 | 0 | 0.0 | 3.5 | 0.00 | 0.00 | 0.00 | 55 | 1015.6 |
| 20260510145512 | 73 | 0 | 0.0 | 3.5 | 0.00 | 0.00 | 0.00 | 55 | 1015.6 |
| 20260510145014 | 73 | 27 | 0.0 | 3.5 | 0.00 | 0.00 | 0.00 | 54 | 1015.6 |
| 20260510144535 | 72 | 0 | 0.0 | 2.6 | 0.00 | 0.00 | 0.00 | 54 | 1015.6 |
| 20260510144015 | 72 | 0 | 0.0 | 3.5 | 0.00 | 0.00 | 0.00 | 55 | 1015.7 |
| 20260510143515 | 72 | 255 | 0.0 | 3.5 | 0.00 | 0.00 | 0.00 | 56 | 1015.6 |
| 20260510143032 | 71 | 0 | 0.0 | 3.5 | 0.00 | 0.00 | 0.00 | 54 | 1015.7 |
| 20260510142513 | 71 | 0 | 0.0 | 2.6 | 0.00 | 0.00 | 0.00 | 56 | 1015.7 |
| 20260510142018 | 71 | 0 | 0.0 | 0.0 | 0.00 | 0.00 | 0.00 | 58 | 1015.8 |
| 20260510141532 | 71 | 0 | 0.0 | 0.0 | 0.00 | 0.00 | 0.00 | 58 | 1015.8 |
| 20260510141016 | 70 | 0 | 0.0 | 1.7 | 0.00 | 0.00 | 0.00 | 61 | 1015.8 |
| 20260510140518 | 69 | 0 | 0.0 | 1.7 | 0.00 | 0.00 | 0.00 | 61 | 1015.8 |
| 20260510140031 | 69 | 0 | 0.0 | 0.0 | 0.00 | 0.00 | 0.00 | 63 | 1015.9 |
| 20260510135518 | 68 | 0 | 0.0 | 0.0 | 0.00 | 0.00 | 0.00 | 64 | 1015.9 |
| 20260510135016 | 67 | 0 | 0.0 | 0.0 | 0.00 | 0.00 | 0.00 | 65 | 1016.0 |
| 20260510134532 | 67 | 0 | 0.0 | 0.0 | 0.00 | 0.00 | 0.00 | 67 | 1016.2 |
| 20260510134016 | 66 | 0 | 0.0 | 0.0 | 0.00 | 0.00 | 0.00 | 69 | 1016.0 |
| 20260510133514 | 66 | 0 | 0.0 | 0.9 | 0.00 | 0.00 | 0.00 | 68 | 1016.1 |
| 20260510133032 | 65 | 0 | 0.0 | 0.9 | 0.00 | 0.00 | 0.00 | 68 | 1016.1 |
| 20260510132516 | 65 | 0 | 0.0 | 1.7 | 0.00 | 0.00 | 0.00 | 69 | 1016.1 |
| 20260510132013 | 64 | 0 | 0.0 | 2.6 | 0.00 | 0.00 | 0.00 | 71 | 1016.1 |
| 20260510131531 | 63 | 0 | 0.0 | 2.6 | 0.00 | 0.00 | 0.00 | 73 | 1016.1 |
| 20260510131016 | 62 | 0 | 0.0 | 2.6 | 0.00 | 0.00 | 0.00 | 75 | 1016.1 |
| 20260510130517 | 61 | 0 | 0.0 | 0.0 | 0.00 | 0.00 | 0.00 | 79 | 1016.0 |
| 20260510130033 | 61 | 0 | 0.0 | 0.0 | 0.00 | 0.00 | 0.00 | 80 | 1016.2 |
| 20260510125515 | 60 | 0 | 0.0 | 0.0 | 0.00 | 0.00 | 0.00 | 81 | 1016.1 |
| 20260510125016 | 59 | 0 | 0.0 | 0.0 | 0.00 | 0.00 | 0.00 | 82 | 1016.2 |
| 20260510124534 | 58 | 0 | 0.0 | 0.9 | 0.00 | 0.00 | 0.00 | 84 | 1016.0 |
| 20260510124016 | 58 | 0 | 0.0 | 0.9 | 0.00 | 0.00 | 0.00 | 86 | 1016.0 |
| 20260510123516 | 56 | 0 | 0.0 | 0.9 | 0.00 | 0.00 | 0.00 | 89 | 1016.1 |
| 20260510123034 | 55 | 0 | 0.0 | 0.0 | 0.00 | 0.00 | 0.00 | 91 | 1015.9 |
| 20260510122513 | 54 | 0 | 0.0 | 0.0 | 0.00 | 0.00 | 0.00 | 93 | 1016.0 |
| 20260510122015 | 53 | 0 | 0.0 | 0.0 | 0.00 | 0.00 | 0.00 | 95 | 1015.9 |
| 20260510121532 | 51 | 0 | 0.0 | 0.0 | 0.00 | 0.00 | 0.00 | 95 | 1015.9 |
| 20260510121016 | 50 | 0 | 0.0 | 0.0 | 0.00 | 0.00 | 0.00 | 95 | 1015.8 |
| 20260510120520 | 49 | 0 | 0.0 | 0.0 | 0.00 | 0.00 | 0.00 | 95 | 1015.8 |
| 20260510120031 | 48 | 0 | 0.0 | 0.0 | 0.00 | 0.00 | 0.00 | 95 | 1015.7 |
| 20260510115514 | 47 | 0 | 0.0 | 0.0 | 0.00 | 0.00 | 0.00 | 95 | 1015.8 |
| 20260510115018 | 46 | 0 | 0.0 | 0.0 | 0.00 | 0.00 | 0.00 | 96 | 1015.8 |
| 20260510114531 | 45 | 0 | 0.0 | 0.0 | 0.00 | 0.00 | 0.00 | 95 | 1016.0 |
| 20260510114014 | 45 | 0 | 0.0 | 0.0 | 0.00 | 0.00 | 0.00 | 95 | 1015.6 |
| 20260510113514 | 44 | 0 | 0.0 | 0.0 | 0.00 | 0.00 | 0.00 | 95 | 1015.6 |
| 20260510113033 | 44 | 0 | 0.0 | 0.0 | 0.00 | 0.00 | 0.00 | 96 | 1015.6 |
| 20260510112513 | 43 | 0 | 0.0 | 0.0 | 0.00 | 0.00 | 0.00 | 95 | 1015.6 |
| 20260510112017 | 43 | 0 | 0.0 | 0.0 | 0.00 | 0.00 | 0.00 | 95 | 1015.7 |
| 20260510111537 | 42 | 0 | 0.0 | 0.0 | 0.00 | 0.00 | 0.00 | 95 | 1015.6 |
| 20260510111015 | 42 | 0 | 0.0 | 0.0 | 0.00 | 0.00 | 0.00 | 95 | 1015.3 |
| 20260510110514 | 42 | 0 | 0.0 | 0.0 | 0.00 | 0.00 | 0.00 | 95 | 1015.2 |
| 20260510110032 | 41 | 0 | 0.0 | 0.0 | 0.00 | 0.00 | 0.00 | 95 | 1015.0 |
| 20260510105513 | 41 | 0 | 0.0 | 0.0 | 0.00 | 0.00 | 0.00 | 95 | 1014.9 |
| 20260510105013 | 41 | 0 | 0.0 | 0.0 | 0.00 | 0.00 | 0.00 | 95 | 1014.7 |
| 20260510104532 | 41 | 0 | 0.0 | 0.0 | 0.00 | 0.00 | 0.00 | 95 | 1014.7 |
| 20260510104015 | 41 | 0 | 0.0 | 0.0 | 0.00 | 0.00 | 0.00 | 95 | 1014.6 |
| 20260510103513 | 41 | 0 | 0.0 | 0.0 | 0.00 | 0.00 | 0.00 | 95 | 1014.6 |
| 20260510103037 | 41 | 0 | 0.0 | 0.0 | 0.00 | 0.00 | 0.00 | 95 | 1014.5 |
| 20260510102515 | 41 | 0 | 0.0 | 0.0 | 0.00 | 0.00 | 0.00 | 95 | 1014.6 |
| 20260510102014 | 40 | 0 | 0.0 | 0.0 | 0.00 | 0.00 | 0.00 | 95 | 1014.4 |
| 20260510101532 | 40 | 0 | 0.0 | 0.0 | 0.00 | 0.00 | 0.00 | 95 | 1014.5 |
| 20260510101015 | 41 | 0 | 0.0 | 0.0 | 0.00 | 0.00 | 0.00 | 95 | 1014.4 |
| 20260510100516 | 41 | 0 | 0.0 | 0.0 | 0.00 | 0.00 | 0.00 | 95 | 1014.4 |
| 20260510100033 | 41 | 0 | 0.0 | 0.0 | 0.00 | 0.00 | 0.00 | 95 | 1014.2 |
| 20260510095519 | 41 | 0 | 0.0 | 0.0 | 0.00 | 0.00 | 0.00 | 95 | 1014.2 |
| 20260510095017 | 41 | 0 | 0.0 | 0.0 | 0.00 | 0.00 | 0.00 | 95 | 1014.2 |
| 20260510094544 | 41 | 0 | 0.0 | 0.0 | 0.00 | 0.00 | 0.00 | 95 | 1014.2 |
| 20260510094013 | 41 | 0 | 0.0 | 0.0 | 0.00 | 0.00 | 0.00 | 95 | 1014.4 |
| 20260510093516 | 41 | 0 | 0.0 | 0.0 | 0.00 | 0.00 | 0.00 | 95 | 1014.2 |
| 20260510093036 | 41 | 0 | 0.0 | 0.0 | 0.00 | 0.00 | 0.00 | 95 | 1014.1 |
| 20260510092520 | 41 | 0 | 0.0 | 0.0 | 0.00 | 0.00 | 0.00 | 95 | 1014.1 |
| 20260510092016 | 41 | 0 | 0.0 | 0.0 | 0.00 | 0.00 | 0.00 | 95 | 1014.1 |
| 20260510091540 | 41 | 0 | 0.0 | 0.0 | 0.00 | 0.00 | 0.00 | 95 | 1014.1 |
| 20260510091015 | 41 | 0 | 0.0 | 0.0 | 0.00 | 0.00 | 0.00 | 95 | 1014.1 |
| 20260510090517 | 41 | 0 | 0.0 | 0.0 | 0.00 | 0.00 | 0.00 | 95 | 1013.9 |
| 20260510090036 | 41 | 0 | 0.0 | 0.0 | 0.00 | 0.00 | 0.00 | 95 | 1014.0 |
| 20260510085516 | 41 | 0 | 0.0 | 0.0 | 0.00 | 0.00 | 0.00 | 95 | 1014.0 |
| 20260510085015 | 41 | 0 | 0.0 | 0.0 | 0.00 | 0.00 | 0.00 | 95 | 1013.9 |
| 20260510084535 | 41 | 0 | 0.0 | 0.0 | 0.00 | 0.00 | 0.00 | 95 | 1014.0 |
| 20260510084015 | 41 | 0 | 0.0 | 0.0 | 0.00 | 0.00 | 0.00 | 94 | 1014.0 |
| 20260510083514 | 41 | 0 | 0.0 | 0.0 | 0.00 | 0.00 | 0.00 | 94 | 1013.8 |
| 20260510083048 | 41 | 0 | 0.0 | 0.0 | 0.00 | 0.00 | 0.00 | 94 | 1013.8 |
| 20260510082513 | 41 | 0 | 0.0 | 0.0 | 0.00 | 0.00 | 0.00 | 94 | 1013.8 |
| 20260510082020 | 42 | 0 | 0.0 | 0.0 | 0.00 | 0.00 | 0.00 | 94 | 1013.7 |
| 20260510081534 | 42 | 0 | 0.0 | 0.0 | 0.00 | 0.00 | 0.00 | 95 | 1013.7 |
| 20260510081013 | 42 | 0 | 0.0 | 0.0 | 0.00 | 0.00 | 0.00 | 95 | 1013.6 |
| 20260510080516 | 41 | 0 | 0.0 | 0.0 | 0.00 | 0.00 | 0.00 | 94 | 1013.7 |
| 20260510080034 | 42 | 0 | 0.0 | 0.0 | 0.00 | 0.00 | 0.00 | 94 | 1013.6 |
| 20260510075512 | 42 | 0 | 0.0 | 0.0 | 0.00 | 0.00 | 0.00 | 94 | 1013.4 |
| 20260510075015 | 42 | 0 | 0.0 | 0.0 | 0.00 | 0.00 | 0.00 | 94 | 1013.4 |
| 20260510074532 | 42 | 0 | 0.0 | 0.0 | 0.00 | 0.00 | 0.00 | 94 | 1013.5 |
| 20260510074017 | 42 | 0 | 0.0 | 0.0 | 0.00 | 0.00 | 0.00 | 94 | 1013.6 |
| 20260510073515 | 42 | 0 | 0.0 | 0.0 | 0.00 | 0.00 | 0.00 | 94 | 1013.5 |
| 20260510073038 | 42 | 0 | 0.0 | 0.0 | 0.00 | 0.00 | 0.00 | 94 | 1013.5 |
| 20260510072516 | 43 | 0 | 0.0 | 0.0 | 0.00 | 0.00 | 0.00 | 94 | 1013.4 |
| 20260510072014 | 43 | 0 | 0.0 | 0.0 | 0.00 | 0.00 | 0.00 | 94 | 1013.3 |
| 20260510071536 | 43 | 0 | 0.0 | 0.0 | 0.00 | 0.00 | 0.00 | 94 | 1013.3 |
| 20260510071019 | 43 | 0 | 0.0 | 0.0 | 0.00 | 0.00 | 0.00 | 94 | 1013.2 |
| 20260510070515 | 43 | 0 | 0.0 | 0.0 | 0.00 | 0.00 | 0.00 | 94 | 1013.4 |
| 20260510070031 | 43 | 0 | 0.0 | 0.0 | 0.00 | 0.00 | 0.00 | 94 | 1013.2 |
| 20260510065515 | 43 | 0 | 0.0 | 0.0 | 0.00 | 0.00 | 0.00 | 94 | 1013.2 |
| 20260510065017 | 43 | 0 | 0.0 | 0.0 | 0.00 | 0.00 | 0.00 | 94 | 1013.2 |
| 20260510064532 | 43 | 0 | 0.0 | 0.0 | 0.00 | 0.00 | 0.00 | 94 | 1013.2 |
| 20260510064015 | 44 | 0 | 0.0 | 0.0 | 0.00 | 0.00 | 0.00 | 94 | 1013.3 |
| 20260510063515 | 44 | 0 | 0.0 | 0.0 | 0.00 | 0.00 | 0.00 | 94 | 1013.3 |
| 20260510063034 | 44 | 0 | 0.0 | 0.0 | 0.00 | 0.00 | 0.00 | 93 | 1013.4 |
| 20260510062515 | 44 | 0 | 0.0 | 0.0 | 0.00 | 0.00 | 0.00 | 93 | 1013.4 |
| 20260510062014 | 44 | 0 | 0.0 | 0.0 | 0.00 | 0.00 | 0.00 | 93 | 1013.5 |
| 20260510061534 | 44 | 0 | 0.0 | 0.0 | 0.00 | 0.00 | 0.00 | 93 | 1013.4 |
| 20260510061016 | 45 | 0 | 0.0 | 0.0 | 0.00 | 0.00 | 0.00 | 93 | 1013.3 |
| 20260510060516 | 45 | 0 | 0.0 | 0.0 | 0.00 | 0.00 | 0.00 | 93 | 1013.2 |
| 20260510060040 | 45 | 0 | 0.0 | 0.0 | 0.00 | 0.00 | 0.00 | 93 | 1013.4 |
| 20260510055512 | 45 | 0 | 0.0 | 0.0 | 0.00 | 0.00 | 0.00 | 93 | 1013.4 |
| 20260510055016 | 45 | 0 | 0.0 | 0.0 | 0.00 | 0.00 | 0.00 | 93 | 1013.5 |
| 20260510054538 | 45 | 0 | 0.0 | 0.0 | 0.00 | 0.00 | 0.00 | 93 | 1013.5 |
| 20260510054018 | 45 | 0 | 0.0 | 0.0 | 0.00 | 0.00 | 0.00 | 93 | 1013.4 |
| 20260510053516 | 45 | 0 | 0.0 | 0.0 | 0.00 | 0.00 | 0.00 | 93 | 1013.5 |
| 20260510053036 | 46 | 0 | 0.0 | 0.0 | 0.00 | 0.00 | 0.00 | 93 | 1013.4 |
| 20260510052516 | 46 | 0 | 0.0 | 0.0 | 0.00 | 0.00 | 0.00 | 92 | 1013.4 |
| 20260510052014 | 46 | 0 | 0.0 | 0.0 | 0.00 | 0.00 | 0.00 | 92 | 1013.3 |
| 20260510051536 | 46 | 0 | 0.0 | 0.0 | 0.00 | 0.00 | 0.00 | 92 | 1013.4 |
| 20260510051016 | 46 | 0 | 0.0 | 0.0 | 0.00 | 0.00 | 0.00 | 92 | 1013.3 |
| 20260510050513 | 46 | 0 | 0.0 | 0.0 | 0.00 | 0.00 | 0.00 | 92 | 1013.3 |
| 20260510050034 | 46 | 0 | 0.0 | 0.0 | 0.00 | 0.00 | 0.00 | 92 | 1013.3 |
| 20260510045519 | 46 | 0 | 0.0 | 0.0 | 0.00 | 0.00 | 0.00 | 92 | 1013.3 |
| 20260510045016 | 47 | 0 | 0.0 | 0.0 | 0.00 | 0.00 | 0.00 | 92 | 1013.1 |
| 20260510044534 | 47 | 0 | 0.0 | 0.0 | 0.00 | 0.00 | 0.00 | 92 | 1013.0 |
| 20260510044016 | 47 | 0 | 0.0 | 0.0 | 0.00 | 0.00 | 0.00 | 91 | 1013.1 |
| 20260510043516 | 47 | 0 | 0.0 | 0.0 | 0.00 | 0.00 | 0.00 | 91 | 1013.2 |
| 20260510043035 | 47 | 0 | 0.0 | 0.0 | 0.00 | 0.00 | 0.00 | 91 | 1013.3 |
| 20260510042520 | 47 | 0 | 0.0 | 0.0 | 0.00 | 0.00 | 0.00 | 90 | 1013.3 |
| 20260510042015 | 48 | 0 | 0.0 | 0.0 | 0.00 | 0.00 | 0.00 | 91 | 1013.3 |
| 20260510041531 | 48 | 0 | 0.0 | 0.0 | 0.00 | 0.00 | 0.00 | 90 | 1013.1 |
| 20260510041015 | 48 | 0 | 0.0 | 0.0 | 0.00 | 0.00 | 0.00 | 90 | 1013.1 |
| 20260510040515 | 48 | 0 | 0.0 | 0.0 | 0.00 | 0.00 | 0.00 | 90 | 1013.0 |
| 20260510040033 | 48 | 0 | 0.0 | 0.0 | 0.00 | 0.00 | 0.00 | 89 | 1013.0 |
| 20260510035515 | 48 | 0 | 0.0 | 0.0 | 0.00 | 0.00 | 0.00 | 89 | 1012.9 |
| 20260510035015 | 49 | 0 | 0.0 | 0.0 | 0.00 | 0.00 | 0.00 | 89 | 1013.0 |
| 20260510034532 | 49 | 0 | 0.0 | 0.0 | 0.00 | 0.00 | 0.00 | 89 | 1013.0 |
| 20260510034012 | 49 | 0 | 0.0 | 0.0 | 0.00 | 0.00 | 0.00 | 88 | 1013.0 |
| 20260510033517 | 49 | 0 | 0.0 | 0.0 | 0.00 | 0.00 | 0.00 | 88 | 1012.9 |
| 20260510033032 | 49 | 0 | 0.0 | 0.0 | 0.00 | 0.00 | 0.00 | 88 | 1013.0 |
| 20260510032512 | 49 | 0 | 0.0 | 0.0 | 0.00 | 0.00 | 0.00 | 88 | 1012.8 |
| 20260510032015 | 50 | 0 | 0.0 | 0.0 | 0.00 | 0.00 | 0.00 | 88 | 1012.7 |
| 20260510031534 | 50 | 0 | 0.0 | 0.0 | 0.00 | 0.00 | 0.00 | 87 | 1012.8 |
| 20260510031016 | 50 | 0 | 0.0 | 0.0 | 0.00 | 0.00 | 0.00 | 87 | 1012.9 |
| 20260510030522 | 50 | 0 | 0.0 | 0.0 | 0.00 | 0.00 | 0.00 | 87 | 1012.7 |
| 20260510030033 | 50 | 0 | 0.0 | 0.0 | 0.00 | 0.00 | 0.00 | 87 | 1012.8 |
| 20260510025516 | 51 | 0 | 0.0 | 0.0 | 0.00 | 0.00 | 0.00 | 86 | 1012.7 |
| 20260510025013 | 51 | 0 | 0.0 | 0.0 | 0.00 | 0.00 | 0.00 | 86 | 1012.8 |
| 20260510024532 | 51 | 0 | 0.0 | 0.0 | 0.00 | 0.00 | 0.00 | 85 | 1012.6 |
| 20260510024015 | 51 | 0 | 0.0 | 0.0 | 0.00 | 0.00 | 0.00 | 85 | 1012.5 |
| 20260510023513 | 52 | 0 | 0.0 | 0.0 | 0.00 | 0.00 | 0.00 | 85 | 1012.7 |
| 20260510023034 | 52 | 0 | 0.0 | 0.0 | 0.00 | 0.00 | 0.00 | 85 | 1012.7 |
| 20260510022515 | 52 | 0 | 0.0 | 0.0 | 0.00 | 0.00 | 0.00 | 84 | 1012.5 |
| 20260510022017 | 52 | 0 | 0.0 | 0.0 | 0.00 | 0.00 | 0.00 | 84 | 1012.6 |
| 20260510021534 | 53 | 0 | 0.0 | 0.0 | 0.00 | 0.00 | 0.00 | 83 | 1012.4 |
| 20260510021015 | 53 | 0 | 0.0 | 0.0 | 0.00 | 0.00 | 0.00 | 83 | 1012.2 |
| 20260510020518 | 53 | 0 | 0.0 | 0.0 | 0.00 | 0.00 | 0.00 | 82 | 1012.4 |
| 20260510020034 | 53 | 0 | 0.0 | 0.0 | 0.00 | 0.00 | 0.00 | 82 | 1012.3 |
| 20260510015515 | 54 | 0 | 0.0 | 0.0 | 0.00 | 0.00 | 0.00 | 82 | 1012.2 |
| 20260510015012 | 54 | 0 | 0.0 | 0.0 | 0.00 | 0.00 | 0.00 | 81 | 1012.2 |
| 20260510014535 | 54 | 0 | 0.0 | 0.0 | 0.00 | 0.00 | 0.00 | 80 | 1012.0 |
| 20260510014015 | 55 | 0 | 0.0 | 0.0 | 0.00 | 0.00 | 0.00 | 80 | 1011.9 |
| 20260510013514 | 55 | 0 | 0.0 | 0.0 | 0.00 | 0.00 | 0.00 | 80 | 1011.7 |
| 20260510013032 | 55 | 0 | 0.0 | 0.0 | 0.00 | 0.00 | 0.00 | 79 | 1011.5 |
| 20260510012515 | 56 | 0 | 0.0 | 0.0 | 0.00 | 0.00 | 0.00 | 79 | 1011.5 |
| 20260510012012 | 56 | 0 | 0.0 | 0.0 | 0.00 | 0.00 | 0.00 | 78 | 1011.5 |
| 20260510011531 | 57 | 0 | 0.0 | 0.0 | 0.00 | 0.00 | 0.00 | 77 | 1011.5 |
| 20260510011011 | 57 | 0 | 0.0 | 0.0 | 0.00 | 0.00 | 0.00 | 76 | 1011.3 |
| 20260510010512 | 57 | 0 | 0.0 | 0.0 | 0.00 | 0.00 | 0.00 | 76 | 1011.3 |
| 20260510010035 | 58 | 0 | 0.0 | 0.0 | 0.00 | 0.00 | 0.00 | 76 | 1011.2 |
| 20260510005515 | 58 | 0 | 0.0 | 0.0 | 0.00 | 0.00 | 0.00 | 74 | 1011.3 |
| 20260510005015 | 59 | 0 | 0.0 | 0.0 | 0.00 | 0.00 | 0.00 | 73 | 1011.0 |
| 20260510004535 | 59 | 0 | 0.0 | 0.0 | 0.00 | 0.00 | 0.00 | 72 | 1011.0 |
| 20260510004014 | 60 | 0 | 0.0 | 0.0 | 0.00 | 0.00 | 0.00 | 72 | 1011.0 |
| 20260510003512 | 61 | 0 | 0.0 | 0.0 | 0.00 | 0.00 | 0.00 | 71 | 1010.9 |
| 20260510003038 | 61 | 0 | 0.0 | 0.0 | 0.00 | 0.00 | 0.00 | 70 | 1010.9 |
| 20260510002514 | 62 | 0 | 0.0 | 0.0 | 0.00 | 0.00 | 0.00 | 70 | 1010.9 |
| 20260510002015 | 63 | 0 | 0.0 | 0.0 | 0.00 | 0.00 | 0.00 | 68 | 1010.9 |
| 20260510001531 | 63 | 0 | 0.0 | 0.0 | 0.00 | 0.00 | 0.00 | 69 | 1010.8 |
| 20260510001015 | 64 | 0 | 0.0 | 0.0 | 0.00 | 0.00 | 0.00 | 66 | 1010.7 |
| 20260510000514 | 65 | 0 | 0.0 | 0.0 | 0.00 | 0.00 | 0.00 | 64 | 1010.6 |
| 20260510000034 | 66 | 0 | 0.0 | 0.0 | 0.00 | 0.00 | 0.00 | 62 | 1010.4 |
| 20260509235515 | 66 | 0 | 0.0 | 0.9 | 0.00 | 0.00 | 0.00 | 62 | 1010.3 |
| 20260509235015 | 68 | 0 | 0.0 | 0.9 | 0.00 | 0.00 | 0.00 | 57 | 1010.2 |
| 20260509234539 | 68 | 0 | 0.0 | 0.0 | 0.00 | 0.00 | 0.00 | 55 | 1010.3 |
| 20260509234013 | 69 | 0 | 0.0 | 0.0 | 0.00 | 0.00 | 0.00 | 52 | 1010.0 |
| 20260509233514 | 69 | 0 | 0.0 | 0.0 | 0.00 | 0.00 | 0.00 | 51 | 1010.0 |
| 20260509233036 | 70 | 0 | 0.0 | 0.9 | 0.00 | 0.00 | 0.00 | 53 | 1009.7 |
| 20260509232515 | 70 | 0 | 0.0 | 0.9 | 0.00 | 0.00 | 0.00 | 50 | 1009.9 |
| 20260509232014 | 71 | 0 | 0.0 | 1.7 | 0.00 | 0.00 | 0.00 | 49 | 1010.0 |
| 20260509231538 | 70 | 0 | 0.0 | 6.1 | 0.00 | 0.00 | 0.00 | 48 | 1009.8 |
| 20260509231014 | 71 | 0 | 0.0 | 6.1 | 0.00 | 0.00 | 0.00 | 46 | 1009.8 |
| 20260509230515 | 71 | 244 | 0.0 | 1.7 | 0.00 | 0.00 | 0.00 | 48 | 1009.7 |
| 20260509230033 | 71 | 0 | 0.0 | 1.7 | 0.00 | 0.00 | 0.00 | 46 | 1009.7 |